Torna al catalogo

SSU 1 DEB

AttivoPO
NORAD 7938·DEBRIS·🇺🇸 United States

Lanciato Jun 8, 1975 da Vandenberg Space Force Base

Loading…

Prossimi Passaggi (prossime 24 ore)

TLE

AggiornatoSource: Space-Track

Epoca: Sep 14, 2026, 02:08 UTC

1 07938U 75051D   26257.08899407  .00000037  00000-0  22897-3 0  9993
2 07938  94.9785 123.8164 0039713  76.7165  77.8726 12.72244283379473

Traccia SSU 1 DEB in tempo reale con AllMySat

Download on the App Store